Location: Asheville, NC
(35.6000°N, 82.5500°W)
Time: 16:53:47
(UTC-05:00)

Tiangong 1 - Pass Details

Date: 11 January 2018
Orbit: 260 x 286 km, 42.8° (Epoch: 23 January)

Event Time Altitude Azimuth Distance (km) Brightness Sun altitude
Rises 19:26:01 0° 243° (WSW) 1,918 6.0 -21.8°
Reaches altitude 10° 19:27:58 10° 244° (WSW) 1,100 4.4 -22.2°
Enters shadow 19:28:51 19° 245° (WSW) 732 3.3 -22.3°
